Terminal Aerodrome Forecast
Issued by NWS Albuquerque, NM

Home | Current Version | Previous Version | Text Only | Print | Product List | Glossary On
Versions: 1 2 3 4 5 6 7 8 9 10 11 12 13
000
FTUS45 KABQ 272333
TAFABQ
TAF
KABQ 272333Z 2800/2824 29015G25KT P6SM BKN090
     FM280200 32009KT P6SM SCT100
     FM280600 36006KT P6SM FEW120
     FM281700 21007KT P6SM SKC
     FM282000 23010KT P6SM SCT090=

USA.gov is the U.S. government's official web portal to all federal, state and local government web resources and services.